CW7794 Weather Reports


time (UTC)temp
C
wind
direction
speed
KPH
gust
KPH
rain 1hr
cm
rain 24hr
cm
rain mn
cm
humidity
%
barometer
mb
20260503175517 15 293 3.2 14.5 0.00 0.00 0.00 66 1013.0
20260503174516 15 225 4.8 11.3 0.00 0.00 0.00 66 1012.9
20260503173517 16 270 1.6 4.8 0.00 0.00 0.00 66 1012.8
20260503172518 16 248 1.6 4.8 0.00 0.00 0.00 64 1012.8
20260503171518 16 180 1.6 8.0 0.00 0.00 0.00 65 1012.7
20260503170538 16 90 1.6 6.4 0.00 0.00 0.00 63 1012.8
20260503150517 12 0.0 0.0 0.00 0.00 0.00 80 1012.5
20260503130537 12 0.0 0.0 0.00 0.00 0.00 80 1011.2
20260503110516 12 0.0 4.8 0.00 0.00 0.00 78 1011.2
20260503081517 13 0.0 1.6 0.00 0.00 0.00 78 1011.6
20260503080518 13 0.0 0.0 0.00 0.00 0.00 78 1011.6
20260503072517 13 338 1.6 8.0 0.00 0.00 0.00 78 1011.9
20260503071517 13 0.0 1.6 0.00 0.00 0.00 78 1011.9
20260503070518 13 315 1.6 8.0 0.00 0.00 0.00 78 1011.8
20260503054517 13 315 1.6 12.9 0.00 0.00 0.00 77 1012.1
20260503053517 13 338 3.2 12.9 0.00 0.00 0.00 77 1012.2
20260503052538 13 315 3.2 9.7 0.00 0.00 0.00 77 1012.2
20260503051537 13 338 4.8 12.9 0.00 0.00 0.00 77 1012.2
20260503050517 13 315 3.2 8.0 0.00 0.00 0.00 77 1012.3
20260503045517 13 338 3.2 9.7 0.00 0.00 0.00 76 1012.2
20260503044517 13 338 6.4 14.5 0.00 0.00 0.00 76 1012.1
20260503043517 13 338 4.8 12.9 0.00 0.00 0.00 76 1012.0
20260503042516 13 338 4.8 14.5 0.00 0.00 0.00 76 1011.8
20260503041516 13 338 8.0 19.3 0.00 0.00 0.00 76 1011.8
20260503040516 13 338 8.0 16.1 0.00 0.00 0.00 76 1011.7
20260503035517 13 338 9.7 19.3 0.00 0.00 0.00 75 1011.5
20260503034516 13 338 6.4 12.9 0.00 0.00 0.00 75 1011.5
20260503033537 13 338 4.8 12.9 0.00 0.00 0.00 75 1011.3
20260503032516 13 315 4.8 12.9 0.00 0.00 0.00 75 1011.3
20260503031516 13 338 6.4 14.5 0.00 0.00 0.00 75 1011.1
20260503030516 14 315 1.6 9.7 0.00 0.00 0.00 74 1011.0
20260503025516 14 338 6.4 16.1 0.00 0.00 0.00 74 1011.0
20260503024537 15 338 8.0 16.1 0.00 0.00 0.00 73 1010.9
20260503023516 15 338 4.8 16.1 0.00 0.00 0.00 72 1010.8
20260503022516 15 338 6.4 12.9 0.00 0.00 0.00 72 1010.6
20260503021517 15 338 6.4 14.5 0.00 0.00 0.00 71 1010.6
20260503020516 15 338 6.4 16.1 0.00 0.00 0.00 71 1010.7
20260503015516 15 315 9.7 17.7 0.00 0.00 0.00 71 1010.6
20260503014516 16 293 8.0 12.9 0.00 0.00 0.00 70 1010.7
20260503013516 16 293 6.4 14.5 0.00 0.00 0.00 70 1010.7
20260503012516 16 338 8.0 19.3 0.00 0.00 0.00 70 1010.7
20260503011517 16 293 4.8 12.9 0.00 0.00 0.00 69 1010.7
20260503010516 17 338 8.0 19.3 0.00 0.00 0.00 69 1010.7
20260503005516 17 315 8.0 19.3 0.00 0.00 0.00 68 1010.7
20260503004536 17 293 8.0 19.3 0.00 0.00 0.00 66 1010.7
20260503003516 17 338 8.0 17.7 0.00 0.00 0.00 66 1010.7
20260503002516 18 315 9.7 24.1 0.00 0.00 0.00 65 1010.7
20260503001516 18 338 9.7 17.7 0.00 0.00 0.00 64 1010.7
20260503000517 18 293 8.0 16.1 0.00 0.00 0.00 63 1010.7
20260502235516 18 270 8.0 16.1 0.00 0.00 0.00 63 1010.7
20260502234516 18 293 9.7 20.9 0.00 0.00 0.00 63 1010.7
20260502233516 19 338 9.7 19.3 0.00 0.00 0.00 62 1010.7
20260502232518 19 338 6.4 20.9 0.00 0.00 0.00 61 1010.7
20260502231518 20 315 4.8 14.5 0.00 0.00 0.00 61 1010.8
20260502230518 20 315 6.4 17.7 0.00 0.00 0.00 60 1011.0
20260502225518 20 293 8.0 17.7 0.00 0.00 0.00 61 1011.0
20260502224518 20 315 9.7 22.5 0.00 0.00 0.00 60 1011.2
20260502223517 20 338 8.0 19.3 0.00 0.00 0.00 60 1011.3
20260502222517 20 338 11.3 20.9 0.00 0.00 0.00 59 1011.5
20260502221537 21 338 8.0 17.7 0.00 0.00 0.00 58 1011.7
20260502220517 21 338 4.8 14.5 0.00 0.00 0.00 59 1011.8
20260502215517 21 293 4.8 14.5 0.00 0.00 0.00 59 1011.8
20260502214538 21 338 4.8 14.5 0.00 0.00 0.00 59 1011.9
20260502213517 21 23 3.2 12.9 0.00 0.00 0.00 59 1011.9
20260502212517 20 248 1.6 6.4 0.00 0.00 0.00 62 1012.0
20260502211518 20 248 1.6 9.7 0.00 0.00 0.00 62 1012.2
20260502210517 20 45 1.6 8.0 0.00 0.00 0.00 63 1012.4
20260502205517 19 293 1.6 8.0 0.00 0.00 0.00 64 1012.5
20260502204517 19 293 3.2 12.9 0.00 0.00 0.00 66 1012.7
20260502203518 19 270 4.8 11.3 0.00 0.00 0.00 64 1012.8
20260502202518 18 293 3.2 14.5 0.00 0.00 0.00 67 1012.9
20260502201537 18 203 4.8 12.9 0.00 0.00 0.00 68 1013.1
20260502200517 17 225 6.4 12.9 0.00 0.00 0.00 69 1013.2
20260502195617 17 225 4.8 12.9 0.00 0.00 0.00 69 1013.4
20260502194517 17 180 6.4 14.5 0.00 0.00 0.00 70 1013.4
20260502193517 17 135 4.8 14.5 0.00 0.00 0.00 70 1013.5
20260502192517 17 180 6.4 16.1 0.00 0.00 0.00 70 1013.6
20260502191538 17 135 3.2 12.9 0.00 0.00 0.00 71 1013.7
20260502190517 16 180 4.8 12.9 0.00 0.00 0.00 73 1013.7
20260502185516 16 158 6.4 16.1 0.00 0.00 0.00 75 1013.7
20260502184517 15 158 9.7 16.1 0.00 0.00 0.00 76 1013.8
20260502183517 15 135 4.8 12.9 0.00 0.00 0.00 78 1013.8
20260502182516 15 158 4.8 14.5 0.00 0.00 0.00 78 1013.9
20260502181516 14 180 6.4 14.5 0.00 0.00 0.00 78 1014.0
20260502180516 14 158 1.6 6.4 0.00 0.00 0.00 79 1013.9